LEMUR-2-OSCARLATOR (46299 NORAD) Tracking and Keplerian Element Data

This shows tracking and keplerian element data for the satellite.

Feedback or suggestion? Click here.




ElementValue
Catalog46299
NameLEMUR-2-OSCARLATOR
Epoch Orbit1349
Epoch Day336.89754142
Epoch Year2020
RAAN48.4047
Inclination97.5114
Eccentricity0.0001451
Argument of Perigee58.5626
Mean Anonmoly301.5745
Mean Motion15.10859198
Decay Rate4.572E-05
L11 46299U 20061AD 20336.89754142 .00004572 00000-0 27865-3 0 9992
L22 46299 97.5114 48.4047 0001451 58.5626 301.5745 15.10859198 13498

Live tracking and technical data element details for LEMUR-2-OSCARLATOR (NORAD 46299). LEMUR-2-OSCARLATOR can be tracked NOW for your location showing map with azimuth and elevation plus other details from your city location.

Track the satellite on the map from your city or location and see movement details for azimuth, elevation, latitude, longitude, range, height, and movement on the map or in text.







IsCatalogInMostPopularTable: catalog: 46299, numindb: 17
Update: records affected: 1



GetName: 46299 LEMUR-2-OSCARLATOR

Hit Count: updated at: Thu, 03 Dec 2020 06:29:11 GMT